Date,TemperatureHighF,TemperatureAvgF,TemperatureLowF,DewpointHighF,DewpointAvgF,DewpointLowF,HumidityHigh,HumidityAvg,HumidityLow,PressureMaxIn,PressureMinIn,WindSpeedMaxMPH,WindSpeedAvgMPH,GustSpeedMaxMPH,PrecipitationSumIn
2013-11-1,71.3,68.0,62.5,67.5,65.5,61.6,98,92,81,29.93,29.67,0,0,0,1.04
2013-11-2,71.9,60.8,50.9,61.4,54.4,45.3,98,82,41,29.93,29.68,0,0,0,0.01
2013-11-3,63.4,50.5,40.3,48.8,42.3,38.4,97,76,46,30.38,29.93,0,0,0,0.00
2013-11-4,55.2,45.1,37.8,39.1,35.5,32.3,90,70,46,30.58,30.38,0,0,0,0.00
2013-11-5,57.4,48.3,37.9,50.9,43.3,34.1,92,83,70,30.56,30.44,0,0,0,0.00
2013-11-6,71.6,56.1,44.5,58.4,51.4,43.1,97,85,56,30.45,30.12,0,0,0,0.00
2013-11-7,67.7,59.4,46.8,63.0,53.9,35.3,100,83,56,30.12,29.92,0,0,0,0.09
2013-11-8,59.0,44.9,33.6,35.9,33.4,30.5,93,67,35,30.34,30.11,0,0,0,0.00
2013-11-9,57.8,43.7,31.9,40.4,34.5,30.0,96,74,39,30.39,30.19,0,0,0,0.00
2013-11-10,72.5,54.1,40.4,44.8,39.2,32.2,89,60,31,30.25,30.06,0,0,0,0.00
2013-11-11,61.2,45.3,31.7,37.0,33.8,29.1,93,67,35,30.36,30.15,0,0,0,0.00
2013-11-12,59.5,41.4,33.7,43.7,34.0,20.7,96,77,45,30.44,30.06,0,0,0,0.00
2013-11-13,46.5,34.6,26.8,23.8,21.5,19.0,87,60,36,30.55,30.44,0,0,0,0.00
2013-11-14,58.9,38.5,23.3,30.8,26.1,21.3,95,67,30,30.49,30.36,0,0,0,0.00
2013-11-15,61.7,45.6,28.7,46.3,36.8,26.1,93,74,45,30.38,30.23,0,0,0,0.00
2013-11-16,66.6,55.7,49.0,59.5,52.8,46.1,97,90,75,30.28,30.22,0,0,0,0.00
2013-11-17,70.2,60.6,52.6,65.5,58.2,51.8,99,92,76,30.23,29.90,0,0,0,0.04
2013-11-18,76.2,65.4,53.0,67.0,53.8,34.0,98,69,42,29.97,29.80,0,0,0,0.01
2013-11-19,57.2,48.2,41.1,34.5,31.7,29.9,75,54,37,30.33,29.96,0,0,0,0.00
2013-11-20,52.6,44.1,36.7,39.8,33.8,28.9,86,67,51,30.47,30.32,0,0,0,0.00
2013-11-21,59.8,49.8,40.7,50.1,44.1,37.8,92,81,67,30.52,30.40,0,0,0,0.00
2013-11-22,69.9,58.1,45.9,60.8,53.7,44.3,96,86,72,30.41,30.08,0,0,0,0.03
2013-11-23,61.6,55.0,42.0,60.4,44.6,24.7,97,71,42,30.18,30.03,0,0,0,0.00
2013-11-24,41.8,33.3,24.7,26.4,14.3,8.5,70,46,29,30.57,30.17,0,0,0,0.00
2013-11-25,43.2,30.9,18.9,22.7,15.6,11.7,86,56,28,30.61,30.40,0,0,0,0.00
2013-11-26,65.2,45.2,34.2,64.8,38.3,19.7,99,78,50,30.42,29.59,0,0,0,1.02
2013-11-27,50.8,40.3,30.5,48.9,37.8,21.9,100,91,69,30.17,29.51,0,0,0,0.69
2013-11-28,46.4,32.6,23.6,28.0,23.4,19.3,91,71,42,30.51,30.17,0,0,0,0.00
2013-11-29,49.2,35.3,24.3,31.2,26.9,22.8,96,74,45,30.67,30.49,0,0,0,0.00
2013-11-30,49.4,36.2,28.4,35.7,29.5,24.4,93,77,57,30.67,30.39,0,0,0,0.00